FW0554 Weather Reports


time (UTC)temp
F
wind
direction
speed
knots
gust
knots
rain 1hr
in
rain 24hr
in
rain mn
in
humidity
%
barometer
mb
20260508043918 55 41 0.0 0.0 0.00 0.39 0.00 93 1001.0
20260508042904 56 41 0.0 0.0 0.00 0.40 0.00 93 1001.0
20260508041906 56 41 0.0 0.0 0.00 0.42 0.00 93 1000.9
20260508040915 56 41 0.0 0.0 0.00 0.44 0.00 93 1001.0
20260508035903 56 41 0.0 0.0 0.00 0.44 0.44 93 1000.8
20260508035332 56 41 0.0 0.0 0.00 0.44 0.44 93 1000.4
20260508035057 56 41 0.0 0.0 0.00 0.44 0.44 93 1000.8
20260508032902 56 41 0.0 0.0 0.00 0.45 0.44 93 1000.2
20260508031901 55 41 0.0 0.0 0.00 0.45 0.44 92 1000.0
20260508031353 55 41 0.0 0.0 0.00 0.45 0.44 92 1000.1
20260508030345 56 41 0.0 0.0 0.00 0.45 0.44 92 1000.0
20260508024902 56 41 0.0 0.0 0.00 0.45 0.44 92 999.9
20260508024343 55 41 0.0 0.0 0.00 0.45 0.44 92 999.9
20260508022901 55 41 0.0 0.0 0.00 0.45 0.44 92 999.8
20260508021900 55 41 0.0 0.0 0.00 0.45 0.44 92 999.5
20260508021834 56 41 0.0 0.0 0.00 0.45 0.44 92 999.7
20260508015859 55 41 0.0 0.0 0.00 0.45 0.44 92 999.5
20260508014858 56 41 0.0 0.0 0.00 0.45 0.44 92 999.6
20260508013857 55 41 0.0 0.0 0.00 0.45 0.44 91 999.3
20260508012857 55 41 0.0 1.7 0.00 0.45 0.44 91 999.0
20260508011858 55 40 0.0 1.7 0.00 0.45 0.44 91 998.8
20260508011336 56 40 0.0 3.5 0.00 0.45 0.44 91 998.8
20260508005854 56 35 0.0 1.7 0.00 0.45 0.44 91 999.0
20260508004855 56 35 0.0 1.7 0.00 0.45 0.44 91 999.1
20260508003854 56 35 0.0 1.7 0.00 0.45 0.44 91 998.8
20260508002854 56 34 0.0 2.6 0.00 0.45 0.44 91 998.4
20260508001853 56 28 0.0 1.7 0.00 0.45 0.44 91 998.7
20260508000854 56 28 0.9 6.1 0.00 0.45 0.44 91 998.7
20260508000335 56 333 0.0 5.2 0.00 0.45 0.44 91 998.4
20260507234852 56 30 0.0 2.6 0.00 0.45 0.44 91 997.9
20260507233851 56 22 0.9 4.3 0.00 0.45 0.44 91 997.9
20260507232849 56 34 0.9 3.5 0.00 0.45 0.44 91 997.8
20260507231848 56 72 1.7 7.0 0.00 0.45 0.44 91 997.5
20260507231328 56 68 1.7 6.1 0.00 0.45 0.44 91 997.4
20260507230327 56 89 0.9 6.1 0.00 0.45 0.44 92 997.6
20260507224846 56 32 1.7 7.8 0.00 0.45 0.44 92 997.6
20260507223843 56 49 0.9 7.0 0.00 0.45 0.44 92 997.4
20260507222843 56 99 2.6 7.8 0.00 0.45 0.44 92 997.2
20260507221842 56 53 1.7 5.2 0.00 0.45 0.44 93 997.0
20260507220844 56 38 1.7 7.8 0.00 0.45 0.44 93 997.1
20260507215844 56 50 0.9 4.3 0.00 0.45 0.44 93 997.5
20260507214843 56 357 0.9 5.2 0.00 0.45 0.44 93 997.5
20260507213843 56 51 0.9 4.3 0.00 0.45 0.44 93 997.3
20260507213343 56 64 1.7 5.2 0.00 0.45 0.44 93 997.3
20260507211841 56 53 1.7 7.0 0.00 0.45 0.44 93 997.3
20260507210838 56 29 1.7 7.8 0.00 0.45 0.44 93 997.2
20260507205836 56 62 1.7 7.0 0.00 0.45 0.44 93 997.2
20260507204838 56 62 1.7 7.0 0.00 0.45 0.44 93 996.8
20260507204316 57 2 0.9 6.1 0.00 0.45 0.44 93 997.0
20260507202836 57 60 1.7 6.1 0.00 0.45 0.44 93 996.8
20260507201837 57 18 2.6 7.8 0.01 0.45 0.44 93 996.6
20260507200837 57 56 1.7 9.6 0.01 0.45 0.44 93 996.4
20260507195839 58 48 1.7 7.0 0.01 0.45 0.44 93 996.7
20260507194836 58 348 1.7 7.8 0.01 0.45 0.44 94 996.7
20260507193837 58 45 1.7 7.0 0.01 0.45 0.44 94 996.5
20260507193317 58 10 1.7 9.6 0.01 0.45 0.44 93 996.5
20260507191835 58 65 1.7 7.0 0.00 0.45 0.43 93 996.6
20260507190834 58 45 1.7 6.1 0.01 0.49 0.43 93 996.8
20260507185834 58 349 0.9 9.6 0.01 0.52 0.43 93 996.8
20260507184834 59 76 0.9 6.1 0.01 0.54 0.43 93 996.5
20260507183834 59 79 0.9 7.0 0.04 0.60 0.43 92 996.1
20260507182831 60 345 0.9 6.1 0.04 0.62 0.43 92 996.8
20260507181830 60 359 1.7 6.1 0.04 0.62 0.43 93 996.6
20260507180831 60 53 0.9 6.1 0.03 0.61 0.42 92 996.0
20260507180316 60 68 1.7 7.8 0.03 0.61 0.42 91 996.2
20260507175741 61 1 2.6 11.3 0.03 0.61 0.42 90 996.2
20260507173829 63 305 1.7 9.6 0.00 0.58 0.39 90 997.0
20260507172829 65 55 2.6 11.3 0.00 0.58 0.39 89 996.5
20260507171830 69 355 0.0 3.5 0.00 0.58 0.39 93 995.4
20260507170829 69 7 0.9 4.3 0.01 0.58 0.39 94 995.5
20260507165831 70 311 0.0 3.5 0.01 0.58 0.39 94 995.3
20260507165748 69 302 0.0 0.0 0.02 0.58 0.39 95 995.3
20260507163829 69 302 0.0 0.0 0.02 0.58 0.39 95 995.4
20260507162829 70 302 0.0 2.6 0.02 0.58 0.39 95 996.0
20260507161828 70 350 0.9 3.5 0.02 0.58 0.39 95 996.6
20260507160828 70 316 0.0 2.6 0.01 0.57 0.38 96 996.9
20260507155830 69 283 0.9 3.5 0.01 0.57 0.38 95 997.0
20260507154829 69 299 0.9 3.5 0.01 0.56 0.37 95 996.9
20260507154312 69 295 0.9 2.6 0.02 0.56 0.37 95 996.8
20260507152828 69 269 0.0 3.5 0.03 0.56 0.37 96 996.3
20260507151830 69 263 0.9 2.6 0.05 0.56 0.37 96 996.5
20260507150829 69 262 0.9 6.1 0.05 0.56 0.37 96 996.5
20260507145828 69 310 0.9 3.5 0.05 0.56 0.37 96 996.6
20260507145803 68 270 0.0 6.1 0.05 0.55 0.35 95 996.7
20260507143827 68 262 0.9 3.5 0.05 0.54 0.35 95 996.9
20260507143313 68 277 0.0 2.6 0.05 0.53 0.34 95 997.0
20260507141824 68 264 0.0 3.5 0.05 0.51 0.32 95 996.8
20260507140825 68 268 0.0 2.6 0.07 0.51 0.32 95 996.7
20260507140303 68 279 0.9 3.5 0.08 0.51 0.32 95 996.8
20260507134824 68 283 0.0 1.7 0.07 0.50 0.31 95 997.1
20260507134749 67 254 0.9 3.5 0.06 0.49 0.30 95 997.3
20260507132831 68 292 0.9 2.6 0.05 0.48 0.29 95 997.2
20260507131819 68 260 0.9 3.5 0.03 0.46 0.26 95 997.2
20260507130820 68 256 0.9 4.3 0.01 0.44 0.25 96 997.1
20260507125820 67 255 0.9 3.5 0.00 0.43 0.24 95 997.1
20260507124819 67 230 0.0 4.3 0.00 0.43 0.24 95 997.2
20260507123819 67 269 0.0 3.5 0.00 0.43 0.24 95 997.1
20260507122820 67 258 0.0 1.7 0.00 0.43 0.24 95 997.1
20260507121820 67 258 0.0 2.6 0.00 0.43 0.24 95 997.1
20260507120821 67 260 0.0 1.7 0.00 0.43 0.24 95 997.2
20260507115819 67 260 0.0 2.6 0.00 0.43 0.24 95 997.4
20260507114819 67 269 0.0 2.6 0.00 0.43 0.24 95 997.4
20260507113820 66 270 0.0 3.5 0.01 0.43 0.24 95 997.5
20260507112823 66 260 0.9 4.3 0.01 0.43 0.24 95 997.6
20260507111819 66 236 1.7 6.1 0.01 0.43 0.24 95 997.6
20260507110821 66 209 1.7 7.0 0.02 0.43 0.24 95 997.7
20260507105820 66 274 0.9 7.0 0.02 0.41 0.24 95 997.7
20260507104820 66 291 1.7 4.3 0.02 0.41 0.24 95 997.3
20260507103819 66 233 1.7 8.7 0.01 0.41 0.23 95 997.1
20260507102820 66 247 0.9 3.5 0.01 0.41 0.23 95 997.3
20260507101819 66 269 0.9 3.5 0.02 0.41 0.23 95 997.1
20260507100820 66 270 0.0 3.5 0.01 0.41 0.22 95 997.2
20260507095820 65 272 0.0 2.6 0.01 0.40 0.22 95 997.1
20260507094818 65 266 0.0 0.0 0.01 0.40 0.22 94 997.2
20260507093817 65 266 0.0 0.0 0.02 0.40 0.22 94 997.2
20260507093249 65 266 0.0 0.0 0.02 0.40 0.22 94 997.5
20260507091810 65 266 0.0 0.0 0.01 0.40 0.21 94 997.2
20260507090810 65 266 0.0 0.0 0.01 0.40 0.21 94 997.4
20260507090251 65 266 0.0 0.0 0.02 0.38 0.21 94 997.4
20260507084807 65 266 0.0 0.0 0.03 0.38 0.20 94 997.4
20260507083806 65 266 0.0 1.7 0.04 0.38 0.20 94 997.5
20260507083422 65 266 0.0 1.7 0.05 0.38 0.20 94 997.9
20260507083247 65 268 0.0 1.7 0.05 0.38 0.20 94 998.2
20260507080804 65 271 0.0 3.5 0.05 0.38 0.20 94 998.2
20260507075803 65 267 0.0 1.7 0.04 0.34 0.19 94 998.0
20260507075246 65 267 0.0 1.7 0.03 0.34 0.18 94 997.5
20260507073803 65 267 0.9 2.6 0.01 0.34 0.16 94 997.9
20260507073244 66 274 0.0 2.6 0.00 0.34 0.15 93 998.5
20260507071801 66 270 0.0 0.0 0.00 0.34 0.15 93 998.6
20260507070803 66 271 0.0 0.0 0.00 0.34 0.15 93 998.5
20260507070251 66 270 0.0 0.0 0.00 0.34 0.15 93 998.2
20260507064801 66 270 0.0 0.0 0.00 0.34 0.15 93 998.6
20260507064737 66 270 0.0 0.0 0.01 0.34 0.15 93 998.7
20260507063232 66 270 0.0 2.6 0.01 0.34 0.15 93 999.0
20260507061800 66 272 0.0 0.0 0.01 0.34 0.15 92 999.3
20260507060800 66 272 0.0 0.0 0.01 0.34 0.15 92 999.0
20260507055801 66 272 0.0 0.0 0.04 0.31 0.15 92 999.3
20260507054801 66 272 0.0 0.0 0.07 0.31 0.15 92 999.3
20260507053802 67 272 0.0 1.7 0.09 0.31 0.14 91 999.4
20260507052801 67 270 0.0 2.6 0.11 0.31 0.14 90 998.6
20260507051800 67 238 0.0 0.0 0.12 0.31 0.14 90 998.1
20260507050801 67 238 0.9 3.5 0.14 0.31 0.14 89 998.5
20260507045801 68 252 0.9 5.2 0.11 0.19 0.11 89 999.1